Regional Weather Roundup
Issued by NWS

Home | Current Version | Previous Version | Graphics & Text | Print | Product List | Glossary On
Versions: 1 2 3 4 5 6 7 8 9 10 11 12 13 14 15 16 17 18 19 20 21 22 23 24 25 26 27 28 29 30 31 32 33 34 35 36 37 38 39 40 41 42 43 44 45 46 47 48 49 50
000
ASUS43 KLOT 131706
RWRIL

ILLINOIS REGIONAL WEATHER ROUNDUP
NATIONAL WEATHER SERVICE CHICAGO/ROMEOVILLE IL
1200 PM CDT SUN JUL 13 2014

NOTE: "FAIR" INDICATES FEW OR NO CLOUDS BELOW 12,000 FEET WITH NO
SIGNIFICANT WEATHER AND/OR OBSTRUCTIONS TO VISIBILITY.

* THESE STATIONS ARE NOT UNDER NWS QUALITY CONTROL. THEY ALSO MAY NOT
  REPORT WEATHER SUCH AS PRECIPITATION OR FOG.

ILZ001-002-007-009-015-016-024-131800-
NORTHWEST ILLINOIS

CITY           SKY/WX    TMP DP  RH WIND       PRES   REMARKS
MOLINE         SUNNY     79  68  69 W6        29.97F HX  81
STERLING*      SUNNY     79  70  73 W7        29.97F HX  81
SAVANNA*       SUNNY     79  66  65 W6        29.96F HX  81
$$

ILZ003-004-008-010-011-017-018-131800-
NORTH CENTRAL ILLINOIS

CITY           SKY/WX    TMP DP  RH WIND       PRES   REMARKS
ROCKFORD       MOSUNNY   78  65  63 W9        29.96F HX  80
FREEPORT*      SUNNY     76  67  74 W7        29.98F
DE KALB*       SUNNY     74  66  74 W8        29.98S
PERU*          MOSUNNY   75  67  76 W9        29.98F
$$

ILZ005-006-012>014-019>023-131800-
NORTHEAST ILLINOIS

CITY           SKY/WX    TMP DP  RH WIND       PRES   REMARKS
CHICAGO-OHARE  MOSUNNY   79  63  57 W10       29.94S HX  80
CHICAGO-MIDWAY MOSUNNY   78  66  66 W9        29.94S HX  80
AURORA         MOSUNNY   77  66  68 NW8       29.97R
LANSING*       PTSUNNY   77  64  63 SW6       29.95S
WAUKEGAN       SUNNY     78  63  59 SW8       29.92F HX  80
DUPAGE AIRPORT MOSUNNY   79  66  64 NW9       29.95S HX  81
KANKAKEE*      PTSUNNY   75  69  80 NW5       29.96S
WHEELING       SUNNY     80  65  59 W8        29.95S HX  82
MORRIS*        MOSUNNY   76  69  78 W6        29.96S
NORTHERLY ISL    N/A     76  63  64 SW7         N/A
$$

LMZ740>746-131800-
SOUTHERN LAKE MICHIGAN

STATION/POSITION SKY/WX   TEMP    WIND        PRES    VSBY  WAVE
                          AIR SEA DIR/SP/G                  HT/PER
                          (F)     (DEG/KT/KT) (MB)    (MI)  (FT/S)
SOUTHERN BUOY              64 62  220/ 10/ 10 1013.3F         1/ 3
WAUKEGAN HARBOR            76     280/ 10/ 16 1014.6S
HARRISON CRIB              72     220/  2/  3   N/A
BURNHAM HARBOR             77     240/  5/ 10   N/A
CALUMET HARBOR             75     200/  5/  9 1014.5F
MICHIGAN CITY              70     230/  6/  7   N/A
$$

ILZ025>027-034>036-040-047-049-050-058-095>099-131800-
WEST-CENTRAL ILLINOIS

CITY           SKY/WX    TMP DP  RH WIND       PRES   REMARKS
QUINCY         PTSUNNY   79  70  74 W6        29.99S HX  82
GALESBURG*     MOSUNNY   78  69  74 NW7       29.99F HX  80
MACOMB*        CLOUDY    73  69  87 NW12      30.01S
$$

ILZ028>032-037-038-041>044-048-051>054-059>061-131800-
CENTRAL ILLINOIS

CITY           SKY/WX    TMP DP  RH WIND       PRES   REMARKS
PONTIAC        PTSUNNY   75  70  83 NW6       29.97F
BLOOMINGTON    PTSUNNY   78  67  68 N9        29.99S HX  80
DECATUR        PTSUNNY   78  71  79 W7        29.98F HX  80
PEORIA         CLOUDY    76  66  71 NW5       29.98F
LACON*         PTSUNNY   75  67  75 N6        29.97F
LINCOLN*       PTSUNNY   80  69  70 NW5       29.95S HX  83
SPRINGFIELD    CLOUDY    81  72  74 N5        29.97F HX  85
TAYLORVILLE    CLOUDY    73  72  94 CALM      29.98F
$$

ILZ033-039-045-046-055>057-062-063-131800-
EAST-CENTRAL ILLINOIS

CITY           SKY/WX    TMP DP  RH WIND       PRES   REMARKS
CHAMPAIGN      PTSUNNY   80  72  76 W7        29.98S HX  84
MATTOON        CLOUDY    80  72  76 W12       29.99R HX  84
PARIS*         CLOUDY    78  73  83 W6        29.99S HX  80
$$

ILZ079-100>102-131800-
SOUTHWEST ILLINOIS

CITY           SKY/WX    TMP DP  RH WIND       PRES   REMARKS
ALTON          MOSUNNY   84  75  74 W7        29.99S HX  92
BELLEVILLE     MOSUNNY   86  73  64 W6        29.97F HX  93
CAHOKIA*       MOSUNNY   87  71  58 CALM      29.97F HX  93
SPARTA*        MOSUNNY   84  70  61 SW7       30.00F HX  88
$$

ILZ064>066-069>071-074>076-080>082-084>086-088>090-092>094-131800-
SOUTH-CENTRAL ILLINOIS

CITY           SKY/WX    TMP DP  RH WIND       PRES   REMARKS
CARBONDALE     MOSUNNY   89  72  56 SW9       29.99F HX  96
CAIRO*         MOSUNNY   90  74  59 SW9       30.03S HX  99
MT. VERNON     PTSUNNY   90  72  55 SW12      29.99F HX  96
SALEM*         PTSUNNY   88  73  59 SW8       29.98F HX  95
METROPOLIS*    PTSUNNY   89  70  53 SW9       30.02F HX  94
$$

ILZ067-068-072-073-078-083-087-091-131800-
SOUTHEAST ILLINOIS

CITY           SKY/WX    TMP DP  RH WIND       PRES   REMARKS
FLORA*         PTSUNNY   85  71  61 W9        29.99S HX  90
HARRISBURG*    MOSUNNY   88  73  60 SW10G17   30.00F HX  95
ROBINSON*      PTSUNNY   85  75  70 W9        29.99S HX  93
CARMI*         MOSUNNY   90  76  64 S10       29.98S HX 101
$$

ABBREVIATIONS USED IN REMARKS
   TC - TEMPERATURE IN CELSIUS
  WCI - WIND CHILL INDEX
   HX - HEAT INDEX
  VSB - VISIBILITY
$$




USA.gov is the U.S. government's official web portal to all federal, state and local government web resources and services.